Weather History for Deming, NM

Change the Weather History Date:

Thursday, May 29, 2014

  Actual Average Record
Temperature  
Mean Temperature 82 °F 73 °F  
Max Temperature 93 °F 91 °F 101 °F (1951)
Min Temperature 70 °F 55 °F 40 °F (1987)
Cooling Degree Days 16    
Growing Degree Days 30 (Base 50)    
Moisture  
Dew Point 37 °F    
Average Humidity 23    
Maximum Humidity 33    
Minimum Humidity 13    
Precipitation  
Precipitation 0.00 in 0.00 in 0.56 in (1989)
Month to date precipitation T 0.42  
Year to date precipitation 0.57 2.40  
Sea Level Pressure  
Sea Level Pressure 29.78 in    
Wind  
Wind Speed 13 mph (SE)    
Max Wind Speed 25 mph    
Max Gust Speed 32 mph    
Visibility 10 miles    
Events      
T = Trace of Precipitation, MM = Missing Value Source: NWS Daily Summary

Daily Weather History Graph

Daily Weather History Graph

Search for Another Location

Airport:

Trip Planner

Search our weather history database for the weather conditions in past years. The results will help you decide how hot, cold, wet, or windy it might be!

Date:

Astronomy

May. 29, 2014 Rise Set
Actual Time 6:05 AM MDT 8:11 PM MDT
Civil Twilight 5:38 AM MDT 8:38 PM MDT
Nautical Twilight 5:04 AM MDT 9:12 PM MDT
Astronomical Twilight 4:28 AM MDT 9:49 PM MDT
Moon 6:58 AM MDT (5/29) 9:06 PM MDT (5/29)
Length of Visible Light 15h 00m
Length of Day
14h 05m
New Moon, 1% of the Moon is Illuminated
May 29
New Moon
Jun 5
First Quarter
Jun 12
Full
Jun 19
Last Quarter
Jun 27
New

Hourly Weather History & Observations

Time (MDT) Temp. Dew Point Humidity Pressure Visibility Wind Dir Wind Speed Gust Speed Precip Events Conditions
12:53 AM 80.1 °F 39.9 °F 24% 29.72 in 10.0 mi SE 9.2 mph 19.6 mph N/A   Clear
2:53 AM 79.0 °F 39.9 °F 25% 29.73 in 10.0 mi SE 10.4 mph 19.6 mph N/A   Clear
3:53 AM 78.1 °F 39.9 °F 25% 29.76 in 10.0 mi ESE 12.7 mph - N/A   Clear
4:53 AM 73.0 °F 39.0 °F 29% 29.77 in 10.0 mi Calm Calm - N/A   Clear
5:53 AM 70.0 °F 39.0 °F 32% 29.77 in 10.0 mi ENE 8.1 mph - N/A   Clear
6:53 AM 72.0 °F 39.9 °F 31% 29.78 in 10.0 mi East 13.8 mph - N/A   Clear
7:53 AM 73.9 °F 39.9 °F 29% 29.79 in 10.0 mi East 18.4 mph - N/A   Clear
8:53 AM 77.0 °F 41.0 °F 28% 29.81 in 10.0 mi East 18.4 mph - N/A   Clear
9:53 AM 81.0 °F 39.9 °F 23% 29.81 in - East 13.8 mph 20.7 mph N/A   Clear
10:53 AM 87.1 °F 39.9 °F 19% 29.79 in 10.0 mi East 18.4 mph 23.0 mph N/A   Clear
11:53 AM 88.0 °F 35.1 °F 15% 29.78 in 10.0 mi SE 17.3 mph 26.5 mph N/A   Clear
12:53 PM 91.0 °F 34.0 °F 13% 29.76 in 10.0 mi ESE 16.1 mph 25.3 mph N/A   Clear
1:20 PM 90.0 °F 35.1 °F 14% 30.02 in 1.8 mi SE 12.7 mph 21.9 mph N/A   Haze
1:27 PM 91.9 °F 35.1 °F 13% 30.02 in - SSE 17.3 mph 28.8 mph N/A   Clear
1:53 PM 91.0 °F 35.1 °F 14% 29.74 in - SE 16.1 mph 26.5 mph N/A   Clear
2:53 PM 91.0 °F 34.0 °F 13% 29.73 in - South 9.2 mph 20.7 mph N/A   Clear
4:53 PM 90.0 °F 36.0 °F 15% 29.70 in 10.0 mi South 10.4 mph - N/A   Clear
5:53 PM 86.0 °F 33.1 °F 15% 29.75 in 10.0 mi West 19.6 mph 28.8 mph N/A   Partly Cloudy
6:53 PM 84.9 °F 34.0 °F 16% 29.74 in 10.0 mi West 17.3 mph - N/A   Clear
7:53 PM 82.9 °F 35.1 °F 18% 29.76 in 10.0 mi West 13.8 mph - N/A   Partly Cloudy
8:53 PM 82.0 °F 35.1 °F 18% 29.76 in 10.0 mi West 11.5 mph - N/A   Partly Cloudy
9:53 PM 79.0 °F 37.9 °F 23% 29.78 in 10.0 mi WNW 12.7 mph 23.0 mph N/A   Scattered Clouds
11:53 PM 78.1 °F 39.0 °F 25% 29.77 in 10.0 mi NW 10.4 mph - N/A   Mostly Cloudy